Regional Weather Roundup
Issued by NWS Sioux Falls, SD

Home | Current Version | Previous Version | Text Only | Print | Product List | Glossary On
Versions: 1 2 3 4 5 6 7 8 9 10 11 12 13 14 15 16 17 18 19 20 21 22 23 24 25 26 27 28 29 30 31 32 33 34 35 36 37 38 39 40 41 42 43 44 45 46 47 48 49 50
000
ASUS43 KFSD 302102
RWRFSD

WEATHER ROUNDUP FOR SE SOUTH DAKOTA/SW MINNESOTA/NW IOWA
NATIONAL WEATHER SERVICE SIOUX FALLS SD
400 PM CDT FRI SEP 30 2016

NOTE: "FAIR" INDICATES FEW OR NO CLOUDS BELOW 12,000 FEET WITH NO
SIGNIFICANT WEATHER AND OR OBSTRUCTIONS TO VISIBILITY.


SDZ038>040-050-052>070-302200-
SOUTHEAST SOUTH DAKOTA

CITY           SKY/WX    TMP DP  RH WIND       PRES   REMARKS
CHAMBERLAIN    NOT AVBL
HURON          PTSUNNY   73  47  39 S15G22    30.16F
MADISON        FAIR      68  46  45 SE13      30.21F
MITCHELL       MOSUNNY   73  45  36 S10       30.18F
SIOUX FALLS    CLOUDY    72  46  39 SE10      30.19F
WINNER         FAIR      75  46  35 S18G26    30.13F
YANKTON        SUNNY     72  43  35 SE8G16    30.17F
$$

MNZ071-072-080-081-089-090-097-098-302200-
SOUTHWEST MINNESOTA

CITY           SKY/WX    TMP DP  RH WIND       PRES   REMARKS
FAIRMONT       SUNNY     73  49  42 NE9       30.21F
JACKSON        SUNNY     72  45  37 NE8       30.22F
LUVERNE        SUNNY     72  41  33 E10       30.21F
MARSHALL       SUNNY     71  47  42 E12       30.21F
MONTEVIDEO     SUNNY     73  48  40 SE10G17   30.23F
PIPESTONE      CLOUDY    72  37  28 SE10      30.21F
REDWOOD FALLS  SUNNY     72  43  35 E10       30.22F
TRACY          SUNNY     72  47  40 E10       30.23F
WINDOM         SUNNY     72  45  37 E13       30.22F
WORTHINGTON    SUNNY     70  44  39 E10G16    30.22F
$$

IAZ001>003-012>014-020>022-031-032-NEZ013-014-SDZ071-302200-
NORTHWEST IOWA

CITY           SKY/WX    TMP DP  RH WIND       PRES   REMARKS
CHEROKEE       SUNNY     73  47  40 E9        30.19F
DENISON        SUNNY     72  50  46 NE10G18   30.16F
ESTHERVILLE    MOSUNNY   71  51  49 NE7       30.20F
LE MARS        SUNNY     73  46  38 E7G14     30.20F HAZE
SHELDON        SUNNY     73  45  35 E10       30.19F
SIOUX CITY     SUNNY     75  47  36 SE8       30.18F
SPENCER        SUNNY     72  49  44 E8        30.20F
STORM LAKE     SUNNY     72  50  46 E8G14     30.20F
$$

ABBREVIATIONS USED IN REMARKS
   TC - TEMPERATURE IN CELSIUS
  WCI - WIND CHILL INDEX
   HX - HEAT INDEX
  VSB - VISIBILITY





USA.gov is the U.S. government's official web portal to all federal, state and local government web resources and services.